Погода в Петрищеве

Россия / Калужская область     54°37′07″N   36°56′43″E
темп.,
°C
ветер,
м/с
пор.,
м/с
влажн.,
%
обл.,
%
осадки,
мм/ч
давл.,
гПа
погр.,
м
17 июня, чт
чт1700:00+13св33820 0.0 101935
03:00+11ссв347835 0.0 102147
06:00+13ссв36810 0.0 1022127
09:00+18св45660 0.0 1023437
12:00+21всв34545 0.0 10241360
15:00+22всв24524 0.0 10241592
18:00+22всв35690 0.0 1023402
21:00+16в22830 0.0 102517
18 июня, пт
пт1800:00+13в34844 0.0 102649
03:00+12в22782 0.0 102722
06:00+14в24820 0.0 102895
09:00+19в35694 0.0 1028487
12:00+21вюв45610 0.0 10281164
15:00+22вюв34600 0.0 10271443
18:00+22юв33714 0.0 10271000
21:00+16юв23871 0.0 102721
19 июня, сб
сб1900:00+14ююв22880 0.0 102816
03:00+13ююв22894 0.0 102811
06:00+15ююв22875 0.0 102881
09:00+19ююв23741 0.0 1028437
12:00+22ююв33660 0.0 10271028
15:00+23ю33610 0.0 10261207
18:00+22ю23710 0.0 1025726
21:00+17ю22820 0.0 102511
20 июня, вс
вс2000:00+15ююв22880 0.0 102512
03:00+14ю11900 0.0 102610
06:00+15ю22860 0.0 102665
09:00+20ююв22730 0.0 1025419
12:00+23ю33620 0.0 1024892
15:00+24ю33590 0.0 1023990
18:00+24ююв22676 0.0 1022763
21:00+19ююв227884 0.0 102211
21 июня, пн
пн2100:00+17ююв2284100 0.0 102214
03:00+16юв1189100 0.0 102211
06:00+18вюв228799 0.0 102251
09:00+22юв3376100 0.0 1022408
12:00+24вюв3366100 0.0 1021833
15:00+25ююв3467100 0.0 10211009
18:00+25вюв247383 0.0 1020546
21:00+20в338999 0.0 102026